Weather History for Athens, OH

Change the Weather History Date:

Monday, February 17, 2014

  Actual Average (KPKB) Record (KPKB)
Temperature  
Mean Temperature 20 °F 35 °F  
Max Temperature 39 °F 45 °F 73 °F (1961)
Min Temperature 2 °F 26 °F -3 °F (1958)
Degree Days  
Heating Degree Days 44 30  
Month to date heating degree days 534  
Since 1 July heating degree days 3479  
Cooling Degree Days 0 0  
Month to date cooling degree days 0  
Year to date cooling degree days 0  
Moisture  
Dew Point 16 °F    
Average Humidity 72    
Maximum Humidity 90    
Minimum Humidity 39    
Precipitation  
Precipitation 0.00 in 0.09 in 0.50 in (1956)
Month to date precipitation 1.61  
Year to date precipitation 4.56  
Sea Level Pressure  
Sea Level Pressure 30.11 in    
Wind  
Wind Speed 4 mph (ESE)    
Max Wind Speed 23 mph    
Max Gust Speed 31 mph    
Visibility 9 miles    
Events Rain    
T = Trace of Precipitation, MM = Missing Value Source: NWS Daily Summary

Daily Weather History Graph

Daily Weather History Graph

Search for Another Location

Airport:

Trip Planner

Search our weather history database for the weather conditions in past years. The results will help you decide how hot, cold, wet, or windy it might be!

Date:

Astronomy

Feb. 17, 2014 Rise Set
Actual Time 7:18 AM EST 6:08 PM EST
Civil Twilight 6:50 AM EST 6:35 PM EST
Nautical Twilight 6:19 AM EST 7:06 PM EST
Astronomical Twilight 5:48 AM EST 7:37 PM EST
Moon 9:00 PM EST (2/17) 8:19 AM EST (2/17)
Length of Visible Light 11h 44m
Length of Day
10h 50m
Waning Gibbous, 93% of the Moon is Illuminated
Feb 17
Waning Gibbous
Feb 22
Last Quarter
Mar 1
New
Mar 8
First Quarter
Mar 16
Full

Hourly Weather History & Observations

Time (EST) Temp. Windchill Dew Point Humidity Pressure Visibility Wind Dir Wind Speed Gust Speed Precip Events Conditions
12:15 AM 20.8 °F 14.4 °F 12.4 °F 70% 30.31 in 10.0 mi North 4.6 mph - N/A   Scattered Clouds
12:35 AM 19.8 °F - 11.8 °F 71% 30.32 in 10.0 mi Calm Calm - N/A   Clear
12:55 AM 16.7 °F - 10.9 °F 78% 30.32 in 10.0 mi Calm Calm - N/A   Clear
1:15 AM 15.6 °F - 9.9 °F 78% 30.32 in 10.0 mi Calm Calm - N/A   Clear
1:35 AM 14.5 °F - 10.0 °F 82% 30.32 in 10.0 mi Calm Calm - N/A   Clear
1:55 AM 10.4 °F - 6.4 °F 84% 30.32 in 10.0 mi Calm Calm - N/A   Clear
2:15 AM 10.8 °F - 7.5 °F 87% 30.32 in 10.0 mi Calm Calm - N/A   Clear
2:35 AM 11.3 °F - 8.2 °F 87% 30.32 in 10.0 mi Calm Calm - N/A   Clear
2:55 AM 8.4 °F - 5.5 °F 88% 30.31 in 7.0 mi Calm Calm - N/A   Clear
3:15 AM 7.7 °F - 5.2 °F 89% 30.31 in 7.0 mi Calm Calm - N/A   Clear
3:35 AM 9.0 °F - 6.6 °F 90% 30.31 in 7.0 mi Calm Calm - N/A   Clear
3:55 AM 7.5 °F - 4.6 °F 88% 30.31 in 7.0 mi Calm Calm - N/A   Clear
4:15 AM 5.9 °F - 2.7 °F 87% 30.32 in 7.0 mi Calm Calm - N/A   Clear
4:35 AM 5.5 °F - 2.3 °F 86% 30.32 in 7.0 mi Calm Calm - N/A   Clear
4:55 AM 4.6 °F - 1.0 °F 85% 30.32 in 7.0 mi Calm Calm - N/A   Clear
5:15 AM 4.5 °F - 1.0 °F 86% 30.33 in 7.0 mi Calm Calm - N/A   Clear
5:35 AM 3.7 °F - 0.1 °F 85% 30.32 in 7.0 mi Calm Calm - N/A   Clear
5:55 AM 3.7 °F - -0.0 °F 84% 30.33 in 7.0 mi Calm Calm - N/A   Clear
6:15 AM 2.7 °F - -1.3 °F 84% 30.33 in 7.0 mi Calm Calm - N/A   Clear
6:35 AM 3.7 °F - -0.2 °F 84% 30.34 in 7.0 mi Calm Calm - N/A   Clear
6:55 AM 4.1 °F - 0.3 °F 84% 30.34 in 7.0 mi Calm Calm - N/A   Clear
7:15 AM 2.8 °F - -0.9 °F 84% 30.33 in 5.0 mi Calm Calm - N/A   Clear
7:35 AM 5.5 °F - 2.1 °F 86% 30.34 in 7.0 mi Calm Calm - N/A   Clear
7:55 AM 5.0 °F - 1.4 °F 85% 30.33 in 7.0 mi Calm Calm - N/A   Clear
8:15 AM 6.4 °F - 3.2 °F 87% 30.34 in 7.0 mi Calm Calm - N/A   Clear
8:35 AM 11.8 °F 1.3 °F 9.0 °F 88% 30.32 in 7.0 mi ENE 6.9 mph - N/A   Clear
8:55 AM 13.3 °F 7.3 °F 10.2 °F 88% 30.32 in 7.0 mi NE 3.5 mph - N/A   Clear
9:15 AM 17.2 °F 11.9 °F 13.3 °F 84% 30.32 in 7.0 mi ENE 3.5 mph - N/A   Clear
9:35 AM 20.8 °F 16.0 °F 14.7 °F 77% 30.32 in 10.0 mi ENE 3.5 mph - N/A   Clear
9:55 AM 22.1 °F 14.7 °F 14.7 °F 73% 30.31 in 10.0 mi ENE 5.8 mph - N/A   Clear
10:15 AM 24.6 °F 16.7 °F 15.4 °F 68% 30.30 in 10.0 mi East 6.9 mph - N/A   Clear
10:35 AM 25.5 °F 16.9 °F 15.6 °F 66% 30.28 in 10.0 mi East 8.1 mph - N/A   Clear
10:55 AM 26.6 °F 21.2 °F 15.8 °F 64% 30.27 in 10.0 mi ESE 4.6 mph - N/A   Clear
11:15 AM 28.4 °F 21.2 °F 16.5 °F 61% 30.26 in 10.0 mi ESE 6.9 mph - N/A   Clear
11:35 AM 29.3 °F 22.3 °F 16.7 °F 59% 30.24 in 10.0 mi ENE 6.9 mph - N/A   Clear
11:55 AM 28.9 °F 20.4 °F 16.9 °F 61% 30.21 in 10.0 mi ENE 9.2 mph - N/A   Mostly Cloudy
12:15 PM 30.0 °F 23.2 °F 17.8 °F 60% 30.19 in 10.0 mi ENE 6.9 mph - N/A   Overcast
12:35 PM 30.4 °F 22.2 °F 17.2 °F 58% 30.17 in 10.0 mi ENE 9.2 mph - N/A   Mostly Cloudy
12:55 PM 30.9 °F 22.2 °F 16.5 °F 55% 30.14 in 10.0 mi ENE 10.4 mph - N/A   Overcast
1:15 PM 31.8 °F 23.9 °F 16.7 °F 54% 30.11 in 10.0 mi ENE 9.2 mph - N/A   Overcast
1:35 PM 32.0 °F 24.2 °F 16.3 °F 52% 30.09 in 10.0 mi East 9.2 mph - N/A   Overcast
1:55 PM 33.3 °F 27.9 °F 16.3 °F 50% 30.08 in 10.0 mi East 5.8 mph - N/A   Mostly Cloudy
2:15 PM 33.4 °F 27.3 °F 16.7 °F 50% 30.06 in 10.0 mi East 6.9 mph - N/A   Mostly Cloudy
2:35 PM 34.0 °F 27.2 °F 16.7 °F 49% 30.04 in 10.0 mi East 8.1 mph - N/A   Overcast
2:55 PM 36.0 °F 27.1 °F 17.2 °F 47% 30.01 in 10.0 mi East 13.8 mph 17.3 mph N/A   Mostly Cloudy
3:15 PM 36.5 °F 31.0 °F 16.2 °F 44% 30.00 in 10.0 mi ESE 6.9 mph - N/A   Mostly Cloudy
3:35 PM 37.6 °F 31.6 °F 16.2 °F 42% 29.98 in 10.0 mi East 8.1 mph - N/A   Scattered Clouds
3:55 PM 37.9 °F 31.5 °F 15.1 °F 39% 29.96 in 10.0 mi ESE 9.2 mph 18.4 mph N/A   Scattered Clouds
4:15 PM 36.9 °F 30.7 °F 16.0 °F 43% 29.95 in 10.0 mi ESE 8.1 mph - N/A   Clear
4:35 PM 36.9 °F 30.1 °F 16.5 °F 44% 29.93 in 10.0 mi ESE 9.2 mph 16.1 mph N/A   Scattered Clouds
4:55 PM 36.7 °F 29.9 °F 17.2 °F 45% 29.89 in 10.0 mi East 9.2 mph - N/A   Mostly Cloudy
5:15 PM 36.9 °F 32.2 °F 17.6 °F 46% 29.88 in 10.0 mi ESE 5.8 mph - N/A   Mostly Cloudy
5:35 PM 36.9 °F 31.4 °F 18.3 °F 47% 29.85 in 10.0 mi ESE 6.9 mph - N/A   Overcast
5:55 PM 37.0 °F 31.6 °F 18.5 °F 47% 29.84 in 10.0 mi ESE 6.9 mph - N/A   Overcast
6:15 PM 36.7 °F 30.5 °F 21.0 °F 53% 29.82 in 10.0 mi East 8.1 mph - N/A Rain Light Rain
6:35 PM 35.8 °F 30.1 °F 23.4 °F 61% 29.82 in 5.0 mi East 6.9 mph - N/A Rain Rain
6:55 PM 34.0 °F - 27.0 °F 75% 29.83 in 4.0 mi Calm Calm - N/A Rain Rain
7:15 PM 33.1 °F 28.7 °F 28.4 °F 83% 29.79 in 5.0 mi East 4.6 mph - N/A Rain Rain
7:35 PM 33.8 °F 30.8 °F 28.4 °F 81% 29.80 in 7.0 mi ESE 3.5 mph - N/A Rain Light Rain
7:55 PM 34.3 °F 30.2 °F 29.1 °F 81% 29.79 in 10.0 mi SSE 4.6 mph - N/A Rain Light Rain
8:15 PM 34.2 °F 29.0 °F 29.8 °F 84% 29.80 in 7.0 mi South 5.8 mph - N/A Rain Light Rain
8:35 PM 34.2 °F 28.2 °F 30.7 °F 87% 29.77 in 7.0 mi SSE 6.9 mph - N/A Rain Light Rain
8:55 PM 35.4 °F 28.4 °F 31.3 °F 85% 29.76 in 10.0 mi South 9.2 mph - N/A   Overcast
9:15 PM 37.4 °F 29.8 °F 31.8 °F 80% 29.76 in 10.0 mi South 11.5 mph 17.3 mph N/A   Overcast
9:35 PM 38.3 °F 29.7 °F 32.0 °F 78% 29.76 in 10.0 mi SSE 15.0 mph - N/A Rain Light Rain
9:55 PM 37.4 °F 27.8 °F 32.7 °F 83% 29.84 in 7.0 mi WSW 17.3 mph 25.3 mph N/A Rain Light Rain
10:15 PM 37.8 °F 29.8 °F 33.8 °F 86% 29.85 in 10.0 mi SW 12.7 mph 19.6 mph N/A   Overcast
10:35 PM 38.3 °F 28.4 °F 34.9 °F 87% 29.85 in 10.0 mi WSW 19.6 mph 23.0 mph N/A   Overcast
10:55 PM 39.2 °F 29.3 °F 34.5 °F 83% 29.86 in 10.0 mi WSW 20.7 mph 29.9 mph N/A   Overcast
11:15 PM 39.7 °F 29.5 °F 33.3 °F 78% 29.86 in 10.0 mi SW 23.0 mph 31.1 mph N/A   Overcast
11:35 PM 39.6 °F 31.0 °F 32.7 °F 76% 29.87 in 10.0 mi SW 16.1 mph 24.2 mph N/A   Overcast
11:55 PM 38.5 °F 29.6 °F 31.3 °F 75% 29.89 in 10.0 mi WSW 16.1 mph 28.8 mph N/A   Mostly Cloudy